Probability
0 0 0 0 0 0 0 0 0 0 0 0 0 0 0 0 0 1 2 3 3 3 6 12 23 41 64 83 91 93 95 96 94 92 88 78 60 43 31 24 21 20 20 21
0 0 0 0 0 0 0 0 0 0 0 0 0 0 0 0 2 4 7 11 13 15 17 21 28 40 58 76 86 91 94 95 94 90 82 68 51 36 24 15 11 10 10 10
0 0 0 0 0 0 0 0 0 0 0 0 0 0 0 0 4 13 21 29 35 39 40 40 40 43 52 66 79 87 91 93 91 85 73 58 44 30 18 8 3 2 2 2
0 0 0 0 0 0 0 0 0 0 0 0 0 0 0 0 7 24 42 52 58 62 62 61 59 58 60 66 76 84 89 90 86 79 69 58 46 32 17 6 1 0 0 0
0 0 0 0 0 0 0 0 0 0 0 0 0 0 0 4 16 39 61 72 75 75 74 73 74 75 75 76 80 85 86 82 77 71 64 56 46 30 14 4 0 0 0 0
0 0 0 0 0 0 0 0 0 0 0 0 0 0 4 15 34 55 70 77 76 74 73 72 72 74 77 77 77 76 73 67 60 54 49 43 33 19 7 1 0 0 0 0
0 0 0 0 0 0 0 0 0 0 0 0 0 1 11 31 49 59 63 62 58 53 52 53 53 54 57 58 56 52 48 43 37 33 29 23 16 7 2 0 0 0 0 0
0 0 0 0 0 0 0 0 0 0 0 0 0 3 15 32 42 46 46 40 32 26 24 26 27 26 27 28 27 24 21 18 16 14 10 7 4 2 0 0 0 0 0 0
0 0 0 0 0 0 0 0 0 0 0 0 0 3 11 20 27 34 34 25 16 11 7 7 8 7 7 7 8 7 5 5 4 3 2 1 1 0 0 0 0 0 0 0
0 0 0 0 0 0 0 0 0 0 0 0 0 1 7 16 26 33 29 17 8 5 2 1 1 1 1 1 1 1 1 1 1 1 1 1 0 0 0 0 0 0 0 0
0 0 0 0 0 0 0 0 0 0 0 0 0 1 7 21 34 36 23 9 4 2 0 0 0 0 0 0 0 0 0 0 0 1 1 0 0 0 0 0 0 0 0 0
0 0 0 0 0 0 0 0 0 0 0 0 0 3 13 31 42 31 13 4 2 1 0 0 0 0 0 0 0 0 0 0 0 0 0 0 0 0 0 0 0 0 0 0
0 0 0 0 0 0 0 0 0 0 0 0 0 6 23 41 41 22 5 1 1 0 0 0 0 0 0 0 0 0 0 0 0 0 0 0 0 0 0 0 0 0 0 0
0 0 0 0 0 0 0 0 0 0 0 0 1 9 27 42 35 16 4 1 0 0 0 0 0 0 0 0 0 0 0 0 0 0 0 0 0 0 0 0 0 0 0 0
0 0 0 0 0 0 0 0 0 0 0 2 6 15 29 39 33 17 6 1 0 0 0 0 0 0 0 0 0 0 0 0 0 0 0 0 0 0 0 0 0 0 0 0
0 0 0 0 0 0 0 0 0 1 2 6 13 23 32 37 32 18 6 1 0 0 0 0 0 0 0 0 0 0 0 0 0 0 0 0 0 0 0 0 0 0 0 0
0 0 0 0 0 0 0 0 0 2 4 9 18 28 32 32 25 13 4 1 0 0 0 0 0 0 0 0 0 0 0 0 0 0 0 0 0 0 0 0 0 0 0 0
0 0 0 0 0 0 0 0 0 1 3 8 18 25 24 20 13 6 2 1 0 0 0 0 0 0 0 0 0 0 0 0 0 0 0 0 0 0 0 0 0 0 0 0
0 0 0 0 0 0 0 0 0 0 1 4 10 13 10 7 4 1 1 0 0 0 0 0 0 0 0 0 0 0 0 0 0 0 0 0 0 0 0 0 0 0 0 0
0 0 0 0 0 0 0 0 0 0 0 1 2 2 1 1 0 0 0 0 0 0 0 0 0 0 0 0 0 0 0 0 0 0 0 0 0 0 0 0 0 0 0 0
0 0 0 0 0 0 0 0 0 0 0 0 0 0 0 0 0 0 0 0 0 0 0 0 0 0 0 0 0 0 0 0 0 0 0 0 0 0 0 0 0 0 0 0
0 0 0 0 0 0 0 0 0 0 0 0 0 0 0 0 0 0 0 0 0 0 0 0 0 0 0 0 0 0 0 0 0 0 0 0 0 0 0 0 0 0 0 0
0 0 0 0 0 0 0 0 0 0 0 0 0 0 0 0 0 0 0 0 0 0 0 0 0 0 0 0 0 0 0 0 0 0 0 0 0 0 0 0 0 0 0 0
0 0 0 0 0 0 0 0 0 0 0 0 0 0 0 0 0 0 0 0 0 0 0 0 0 0 0 0 0 0 0 0 0 0 0 0 0 0 0 0 0 0 0 0
0 0 0 0 0 0 0 0 0 0 0 0 0 0 0 0 0 0 0 0 0 0 0 0 0 0 0 0 0 0 0 0 0 0 0 0 0 0 0 0 0 0 0 0
0 0 0 0 0 0 0 0 0 0 0 0 0 0 0 0 0 0 0 0 0 0 0 0 0 0 0 0 0 0 0 0 0 0 0 0 0 0 0 0 0 0 0 0
Wind_Speed
12 12 13 13 15 9 5 9 10 8 3 8 11 11 9 6 6 6 6 5 6 9 9 8 10 13 14 14 15 14 14 14 12 10 9 7 5 5 4 4 4 2 0 2
12 16 13 9 11 12 11 11 10 8 4 7 10 12 11 8 6 3 4 5 6 7 6 4 6 9 13 15 15 15 14 14 14 10 8 6 7 5 5 5 5 4 3 3
17 6 10 11 12 14 15 14 12 9 6 9 10 15 14 9 5 1 2 4 6 7 7 4 3 5 9 12 14 12 13 13 13 12 9 9 6 5 4 5 4 5 6 5
15 7 8 13 14 14 14 13 12 10 11 10 8 13 14 9 7 2 2 5 7 8 7 5 3 1 2 6 9 12 12 12 13 14 13 13 9 7 5 4 4 6 6 7
11 11 12 13 13 14 11 8 10 10 11 12 11 11 11 10 9 3 5 7 8 8 8 7 7 6 5 4 6 9 11 11 12 11 12 11 8 7 6 7 8 7 7 8
9 8 10 11 11 12 8 7 7 9 11 14 14 12 10 5 2 3 6 8 9 9 9 10 10 9 9 9 9 9 10 10 10 9 9 9 11 11 10 9 9 7 7 7
11 11 10 9 10 11 12 11 9 11 11 11 8 10 3 8 6 5 7 8 9 10 10 10 11 11 11 12 11 11 12 11 10 9 9 9 10 11 11 10 9 9 7 7
11 12 13 13 14 11 15 15 10 7 9 8 10 9 8 9 9 9 9 9 10 10 11 12 12 12 12 13 13 13 13 12 11 11 10 10 9 8 8 10 9 9 7 7
7 5 8 11 13 14 14 14 14 11 9 8 7 6 9 9 10 10 10 10 10 10 11 12 13 13 13 13 13 13 13 13 13 13 12 12 11 11 12 12 11 9 8 8
5 5 5 7 10 12 13 12 9 11 11 12 11 12 10 14 11 11 10 10 9 10 11 12 12 12 12 13 13 14 14 14 14 13 12 11 13 13 12 11 11 10 9 9
6 7 5 7 10 12 12 11 11 12 11 11 11 3 7 12 12 12 11 10 10 10 10 10 11 11 12 13 13 13 14 14 14 14 14 14 13 13 12 11 11 10 9 8
2 6 6 4 1 3 8 11 12 11 11 11 11 3 6 8 12 13 12 11 10 10 10 10 11 11 12 12 12 13 13 14 14 14 14 14 13 13 13 12 11 10 9 8
3 4 6 7 7 5 4 5 8 9 9 10 12 5 9 11 13 13 13 11 10 11 10 10 10 10 11 11 12 12 13 13 13 13 14 14 13 13 12 11 10 9 8 7
5 3 6 5 1 3 4 3 4 8 9 9 7 7 11 12 12 12 12 12 11 10 10 10 10 10 10 10 11 12 12 12 12 13 13 13 12 12 11 10 8 7 6 6
5 2 1 2 2 2 2 1 1 3 4 5 1 6 10 10 12 13 12 12 12 11 10 10 10 9 10 10 11 11 11 11 11 12 12 12 10 10 9 8 7 6 5 4
5 3 2 3 2 2 1 0 1 2 3 1 2 4 7 8 11 12 12 12 12 11 11 11 10 10 10 10 10 10 10 10 10 11 10 9 8 8 7 6 5 5 4 3
4 4 5 5 3 6 6 3 4 2 3 4 3 5 8 9 9 8 8 10 11 11 11 11 10 9 9 9 10 10 10 10 10 10 9 8 7 6 6 5 5 4 4 4
6 5 5 5 5 9 4 6 4 3 4 5 6 8 9 12 12 11 8 9 10 10 10 10 9 9 9 9 10 10 10 9 9 8 7 7 6 6 5 5 5 4 3 3
4 5 5 5 6 3 6 5 6 4 4 6 7 10 11 13 12 10 10 9 10 10 9 9 9 10 10 10 9 10 9 8 8 7 6 6 5 5 5 5 5 4 3 3
1 3 5 5 6 2 6 7 6 5 3 6 7 8 7 6 4 5 7 9 10 10 9 9 10 10 10 8 8 9 8 8 7 7 6 6 5 5 5 5 4 3 2 2
3 3 4 5 4 4 9 8 6 3 5 6 7 7 6 7 9 10 9 10 10 10 10 10 10 9 8 7 7 8 8 7 7 6 6 6 5 5 5 4 2 1 2 2
6 4 3 4 3 4 11 7 6 6 6 7 8 10 12 13 13 12 11 11 11 11 10 10 9 8 7 6 7 8 7 7 6 6 6 5 4 3 3 2 1 1 3 3
3 6 5 4 4 5 5 6 5 5 6 6 7 10 13 13 12 11 11 11 11 11 10 9 9 8 6 5 6 7 6 5 5 5 5 4 3 2 1 1 2 2 3 4
2 1 4 1 4 4 5 5 6 6 6 6 6 8 11 13 13 12 11 11 10 10 9 9 8 8 7 6 5 5 5 4 4 4 4 3 2 1 0 2 3 4 4 5
2 2 3 3 2 3 4 4 5 5 6 7 7 8 11 14 13 13 12 11 10 9 8 7 7 8 7 6 5 5 4 3 3 3 2 1 0 2 2 2 3 5 6 6
3 4 5 3 5 3 5 5 4 4 5 6 8 10 11 13 13 13 12 11 10 9 8 8 8 8 7 6 6 5 4 3 2 2 1 1 1 2 3 3 1 4 2 3
Wind_Direction
186 205 210 207 218 247 246 228 215 211 184 246 238 242 243 250 257 253 252 258 258 258 259 241 221 216 207 200 197 195 194 186 182 177 171 159 147 135 117 89 70 48 146 156
189 221 222 220 217 229 231 231 227 219 207 262 255 254 250 247 247 283 294 293 294 294 292 283 247 220 213 205 198 193 190 184 182 175 164 149 141 136 126 123 133 146 148 138
211 215 208 204 204 215 225 234 237 241 236 237 256 249 233 218 203 177 336 332 331 328 321 316 272 241 221 208 198 191 186 179 172 154 141 132 127 128 150 156 150 140 139 135
224 192 183 202 208 211 220 222 241 247 253 239 223 253 214 198 198 167 32 15 3 357 352 0 2 360 223 204 187 178 170 162 157 154 154 154 156 158 160 145 126 120 117 113
210 207 203 211 211 211 229 218 228 240 249 260 232 249 237 192 203 139 46 30 23 16 21 33 37 46 57 88 132 142 144 147 152 155 155 155 148 133 125 119 120 113 102 99
214 200 218 222 215 212 217 207 219 238 242 240 235 238 233 170 140 83 61 45 37 37 43 48 53 59 63 72 88 105 116 120 129 132 136 139 135 132 132 130 127 114 103 97
205 203 208 221 205 196 211 217 214 211 213 232 203 226 189 90 82 79 76 62 51 46 49 52 55 61 67 72 80 89 96 95 95 98 101 110 122 129 130 129 123 118 110 104
201 205 200 209 219 200 207 221 235 237 223 205 177 222 114 105 109 101 90 78 65 55 52 52 54 59 63 68 74 80 84 84 84 85 87 90 99 103 106 110 114 112 109 108
208 209 183 209 220 227 212 222 242 263 266 259 200 143 125 134 127 114 100 85 71 60 55 53 53 54 58 63 66 74 79 78 79 82 85 86 88 94 101 105 104 104 110 113
260 246 212 197 212 223 239 223 222 237 242 240 226 211 182 164 150 130 111 97 82 70 62 58 56 59 62 66 70 72 76 80 81 83 85 88 90 95 99 100 100 102 103 104
255 251 214 192 212 205 205 217 229 239 251 254 246 203 75 147 146 132 114 100 88 77 69 65 63 65 70 71 74 77 79 82 83 84 87 90 93 96 97 97 98 98 98 101
278 265 240 208 211 283 219 225 225 239 236 246 267 103 94 128 130 123 114 105 96 88 80 76 75 75 75 76 77 79 81 84 86 89 90 90 92 93 92 91 91 93 92 94
328 256 228 190 183 176 201 224 237 245 263 254 254 142 117 123 121 121 121 115 106 100 93 88 82 78 78 79 81 82 84 87 91 93 93 92 90 89 89 89 87 89 93 95
290 287 289 284 74 147 177 193 226 242 247 249 255 136 145 141 132 128 124 119 112 105 101 96 89 85 84 84 86 87 86 87 90 92 92 91 90 90 90 89 88 89 92 93
324 273 47 58 85 133 138 128 261 263 297 293 35 135 150 151 141 134 129 125 119 114 109 104 101 98 95 92 90 90 92 93 94 95 93 93 94 94 93 91 91 89 87 88
355 305 241 207 200 219 222 348 336 341 340 347 112 98 105 119 125 128 132 131 125 121 117 114 112 110 105 103 102 100 99 99 99 98 97 98 99 98 97 97 98 96 92 84
331 303 265 244 252 257 241 354 333 324 3 337 341 73 119 109 100 107 120 121 118 117 118 118 116 114 112 112 114 111 109 107 105 106 109 114 114 108 105 102 93 88 84 77
315 302 275 263 248 250 68 49 9 360 36 25 63 78 90 95 80 61 70 104 111 113 114 115 116 114 112 113 113 113 112 113 116 120 124 120 114 109 102 93 85 76 63 53
338 300 280 270 254 231 111 40 356 339 62 52 92 102 108 115 98 64 53 79 96 103 108 111 113 115 116 114 116 116 116 118 121 122 120 116 113 107 98 89 80 65 55 41
56 285 274 271 273 279 54 15 335 283 105 71 101 113 128 155 121 92 80 88 94 99 105 112 114 113 111 113 120 119 118 121 120 120 116 112 101 93 89 85 74 68 45 23
321 303 294 289 273 71 24 339 305 297 54 64 84 87 80 60 79 106 103 96 98 103 109 113 113 110 110 118 124 124 124 120 118 117 114 107 97 95 94 93 78 41 4 8
331 327 339 325 310 50 7 1 31 46 55 71 79 87 94 99 103 108 108 108 110 110 111 111 108 106 113 127 131 123 116 116 118 117 113 107 98 95 103 107 77 338 328 311
336 356 345 6 40 66 47 55 59 55 62 61 79 103 115 118 118 117 115 114 113 114 112 112 112 113 119 126 124 119 123 127 123 117 109 107 105 97 83 304 299 298 308 322
137 332 298 324 96 100 98 90 73 61 61 67 91 114 123 124 125 123 120 118 117 116 117 120 123 121 116 113 109 111 118 123 125 120 119 123 130 140 116 299 319 334 342 346
317 282 279 275 107 135 122 79 65 72 76 83 93 107 121 127 129 126 122 121 121 121 124 124 117 111 109 108 103 103 109 123 122 119 119 122 51 21 319 324 6 348 22 20
246 269 284 7 46 2 76 70 64 85 92 103 112 113 118 124 126 125 123 123 123 122 118 111 105 101 100 98 93 89 95 100 116 132 115 5 341 350 329 336 112 112 44 111